Petersburg, AK

11:37 AM AKST on December 15, 2017 (GMT -0900)
Johnson Petersburg

Weather History for PAPG - January, 2011

Change the Weather History Date:

Tuesday, January 18, 2011

  Actual Average Record
Temperature  
Mean Temperature 32 °F -  
Max Temperature 35 °F 32 °F 57 °F (2009)
Min Temperature 30 °F 24 °F -4 °F (2012)
Degree Days  
Heating Degree Days 32    
Moisture  
Dew Point 31 °F    
Average Humidity 92    
Maximum Humidity 100    
Minimum Humidity 87    
Precipitation  
Precipitation 0.00 in - - ()
Sea Level Pressure  
Sea Level Pressure 30.06 in    
Wind  
Wind Speed 4 mph (North)    
Max Wind Speed 8 mph    
Max Gust Speed -    
Visibility 8 miles    
Events      
Averages and records for this station are not official NWS values.
T = Trace of Precipitation, MM = Missing Value Source: NWS Daily Summary

Daily Weather History Graph

Daily Weather History Graph

Search for Another Location

Airport or City:

Trip Planner

Search our weather history database for the weather conditions in past years. The results will help you decide how hot, cold, wet, or windy it might be!

Date:

Astronomy

Jan. 18, 2011 Rise Set
Actual Time 8:13 AM AKST 3:51 PM AKST
Civil Twilight 7:28 AM AKST 4:36 PM AKST
Nautical Twilight 6:40 AM AKST 5:24 PM AKST
Astronomical Twilight 5:55 AM AKST 6:09 PM AKST
Moon 2:46 PM AKST (1/18) 7:25 AM AKST (1/18)
Length of Visible Light 9h 07m
Length of Day
7h 37m
Waxing Gibbous, 99% of the Moon is Illuminated
Jan 18
Waxing Gibbous
Jan 19
Full
Jan 26
Last Quarter
Feb 2
New
Feb 10
First Quarter

Hourly Weather History & Observations

Time (AKST) Temp. Windchill Dew Point Humidity Pressure Visibility Wind Dir Wind Speed Gust Speed Precip Events Conditions
12:16 AM 30.2 °F 25.4 °F 30.2 °F 100% 30.11 in 7.0 mi NNW 4.6 mph - N/A   Overcast
12:36 AM 32.0 °F 27.5 °F 30.2 °F 93% 30.10 in 8.0 mi NW 4.6 mph - N/A   Overcast
12:56 AM 32.0 °F 26.4 °F 30.2 °F 93% 30.09 in 9.0 mi North 5.8 mph - N/A   Overcast
1:16 AM 33.8 °F 28.6 °F 30.2 °F 87% 30.09 in 10.0 mi NNW 5.8 mph - N/A   Overcast
1:36 AM 33.8 °F 29.6 °F 30.2 °F 87% 30.09 in 10.0 mi NNW 4.6 mph - N/A   Overcast
1:56 AM 33.8 °F 29.6 °F 30.2 °F 87% 30.09 in 9.0 mi North 4.6 mph - N/A   Overcast
2:16 AM 33.8 °F 30.8 °F 30.2 °F 87% 30.08 in 10.0 mi NW 3.5 mph - N/A   Overcast
2:36 AM 33.8 °F 28.6 °F 30.2 °F 87% 30.08 in 3.0 mi NW 5.8 mph - N/A   Overcast
2:56 AM 32.0 °F 27.5 °F 32.0 °F 100% 30.07 in 4.0 mi North 4.6 mph - N/A   Overcast
3:16 AM 32.0 °F 28.7 °F 30.2 °F 93% 30.07 in 3.0 mi North 3.5 mph - N/A   Overcast
3:36 AM 32.0 °F 28.7 °F 30.2 °F 93% 30.06 in 7.0 mi North 3.5 mph - N/A   Overcast
3:56 AM 32.0 °F 27.5 °F 32.0 °F 100% 30.06 in 8.0 mi North 4.6 mph - N/A   Overcast
4:16 AM 33.8 °F 30.8 °F 32.0 °F 93% 30.06 in 5.0 mi North 3.5 mph - N/A   Overcast
4:36 AM 32.0 °F - 30.2 °F 93% 30.05 in 3.0 mi Calm Calm - N/A   Overcast
4:56 AM 32.0 °F - 30.2 °F 93% 30.04 in 4.0 mi Calm Calm - N/A   Overcast
5:16 AM 32.0 °F 28.7 °F 32.0 °F 100% 30.04 in 9.0 mi North 3.5 mph - N/A   Overcast
5:36 AM 33.8 °F 29.6 °F 30.2 °F 87% 30.04 in 10.0 mi North 4.6 mph - N/A   Overcast
5:56 AM 33.8 °F 28.6 °F 32.0 °F 93% 30.03 in 10.0 mi North 5.8 mph - N/A   Overcast
6:16 AM 33.8 °F 27.0 °F 32.0 °F 93% 30.02 in 10.0 mi North 8.1 mph - N/A   Overcast
6:36 AM 33.8 °F 28.6 °F 30.2 °F 87% 30.01 in 10.0 mi North 5.8 mph - N/A   Overcast
6:56 AM 33.8 °F - 30.2 °F 87% 30.01 in 10.0 mi Calm Calm - N/A   Overcast
7:16 AM 32.0 °F 27.5 °F 30.2 °F 93% 30.01 in 4.0 mi North 4.6 mph - N/A   Overcast
7:36 AM 33.8 °F 29.6 °F 32.0 °F 93% 30.01 in 3.0 mi North 4.6 mph - N/A   Overcast
7:56 AM 33.8 °F 28.6 °F 30.2 °F 87% 30.01 in 3.0 mi North 5.8 mph - N/A   Overcast
8:16 AM 32.0 °F 25.6 °F 30.2 °F 93% 30.01 in 3.0 mi North 6.9 mph - N/A   Overcast
8:36 AM 33.8 °F 28.6 °F 30.2 °F 87% 30.01 in 3.0 mi North 5.8 mph - N/A   Overcast
8:56 AM 33.8 °F 28.6 °F 30.2 °F 87% 30.02 in 5.0 mi North 5.8 mph - N/A   Overcast
9:16 AM 33.8 °F - 32.0 °F 93% 30.02 in 5.0 mi Calm Calm - N/A   Overcast
9:36 AM 33.8 °F - 30.2 °F 87% 30.02 in 5.0 mi Calm Calm - N/A   Overcast
9:56 AM 33.8 °F 30.8 °F 32.0 °F 93% 30.03 in 5.0 mi NNW 3.5 mph - N/A   Overcast
10:16 AM 33.8 °F 29.6 °F 32.0 °F 93% 30.04 in 5.0 mi North 4.6 mph - N/A   Overcast
10:36 AM 33.8 °F 28.6 °F 32.0 °F 93% 30.04 in 5.0 mi North 5.8 mph - N/A   Overcast
10:56 AM 33.8 °F 29.6 °F 32.0 °F 93% 30.04 in 7.0 mi North 4.6 mph - N/A   Mostly Cloudy
11:16 AM 33.8 °F - 32.0 °F 93% 30.05 in 7.0 mi Calm Calm - N/A   Mostly Cloudy
11:36 AM 35.6 °F 29.2 °F 33.8 °F 93% 30.06 in 10.0 mi NNW 8.1 mph - N/A   Mostly Cloudy
11:56 AM 33.8 °F 29.6 °F 32.0 °F 93% 30.06 in 5.0 mi North 4.6 mph - N/A   Overcast
12:16 PM 33.8 °F 27.7 °F 32.0 °F 93% 30.06 in 10.0 mi NNW 6.9 mph - N/A   Scattered Clouds
12:36 PM 33.8 °F 28.6 °F 30.2 °F 87% 30.07 in 10.0 mi West 5.8 mph - N/A   Scattered Clouds
12:56 PM 33.8 °F 29.6 °F 32.0 °F 93% 30.07 in 10.0 mi SSW 4.6 mph - N/A   Partly Cloudy
1:16 PM 33.8 °F 29.6 °F 30.2 °F 87% 30.08 in 10.0 mi North 4.6 mph - N/A   Partly Cloudy
1:36 PM 33.8 °F 30.8 °F 30.2 °F 87% 30.08 in 10.0 mi North 3.5 mph - N/A   Partly Cloudy
1:56 PM 32.0 °F - 30.2 °F 93% 30.08 in 10.0 mi Calm Calm - N/A   Mostly Cloudy
2:16 PM 32.0 °F - 30.2 °F 93% 30.08 in 10.0 mi Calm Calm - N/A   Mostly Cloudy
2:36 PM 33.8 °F - 32.0 °F 93% 30.08 in 10.0 mi Calm Calm - N/A   Mostly Cloudy
2:56 PM 33.8 °F 30.8 °F 30.2 °F 87% 30.09 in 10.0 mi SSW 3.5 mph - N/A   Mostly Cloudy
3:16 PM 30.2 °F - 30.2 °F 100% 30.09 in 10.0 mi Calm Calm - N/A   Mostly Cloudy
3:36 PM 32.0 °F - 30.2 °F 93% 30.10 in 10.0 mi Calm Calm - N/A   Mostly Cloudy
3:56 PM 32.0 °F - 30.2 °F 93% 30.11 in 10.0 mi Calm Calm - N/A   Overcast
4:16 PM 32.0 °F - 30.2 °F 93% 30.11 in 10.0 mi Calm Calm - N/A   Overcast
4:36 PM 32.0 °F - 30.2 °F 93% 30.11 in 10.0 mi Calm Calm - N/A   Overcast
4:56 PM 32.0 °F - 30.2 °F 93% 30.10 in 10.0 mi Calm Calm - N/A   Overcast
5:16 PM 30.2 °F 25.4 °F 30.2 °F 100% 30.10 in 10.0 mi North 4.6 mph - N/A   Overcast
5:36 PM 32.0 °F - 30.2 °F 93% 30.10 in 10.0 mi Calm Calm - N/A   Overcast
5:56 PM 32.0 °F 28.7 °F 30.2 °F 93% 30.10 in 10.0 mi North 3.5 mph - N/A   Overcast
6:16 PM 32.0 °F - 30.2 °F 93% 30.10 in 3.0 mi Calm Calm - N/A   Overcast
6:36 PM 32.0 °F - 30.2 °F 93% 30.10 in 3.0 mi Calm Calm - N/A   Overcast
6:56 PM 32.0 °F - 30.2 °F 93% 30.10 in 3.0 mi Calm Calm - N/A   Overcast
7:16 PM 32.0 °F - 30.2 °F 93% 30.10 in 3.0 mi Calm Calm - N/A   Overcast
7:36 PM 32.0 °F - 30.2 °F 93% 30.10 in 3.0 mi Calm Calm - N/A   Overcast
7:56 PM 32.0 °F - 30.2 °F 93% 30.10 in 4.0 mi Calm Calm - N/A   Overcast
8:16 PM 32.0 °F 28.7 °F 30.2 °F 93% 30.10 in 4.0 mi North 3.5 mph - N/A   Overcast
8:36 PM 32.0 °F - 30.2 °F 93% 30.10 in 4.0 mi Calm Calm - N/A   Overcast
8:56 PM 32.0 °F - 30.2 °F 93% 30.10 in 3.0 mi Calm Calm - N/A   Overcast
9:16 PM 32.0 °F - 30.2 °F 93% 30.10 in 3.0 mi Calm Calm - N/A   Overcast
9:36 PM 32.0 °F - 30.2 °F 93% 30.09 in 3.0 mi Calm Calm - N/A   Overcast
9:56 PM 32.0 °F - 30.2 °F 93% 30.09 in 4.0 mi Calm Calm - N/A   Mostly Cloudy
10:16 PM 32.0 °F - 30.2 °F 93% 30.09 in 2.5 mi Calm Calm - N/A   Overcast
10:36 PM 32.0 °F - 30.2 °F 93% 30.09 in 1.8 mi Calm Calm - N/A   Overcast
10:56 PM 32.0 °F - 30.2 °F 93% 30.10 in 5.0 mi Calm Calm - N/A   Overcast
11:16 PM 32.0 °F - 30.2 °F 93% 30.11 in 7.0 mi Calm Calm - N/A   Overcast
11:36 PM 32.0 °F - 30.2 °F 93% 30.11 in 9.0 mi Calm Calm - N/A   Overcast
11:56 PM 32.0 °F - 30.2 °F 93% 30.12 in 5.0 mi Calm Calm - N/A   Overcast